AAY489 KTVC-KFLL

Flight info

Callsign AAY489
Flight time N/A
Altitude 37000
Route VIO SJAAY VOSTK/N0458F380 Q118 KAILL/N0456F370 Q118 THRSR Q79 ZPLEN TEEKY4
Aircraft A20N/M-SDE2E3FGHIRWXY/LB1

Departure

Time 2026-05-08 02:25
Airport Cherry Capital Airport (KTVC)

Arrival

Time N/A
Airport Fort Lauderdale Hollywood International Airport (KFLL)
Time Latitude Longitude Altitude Speed Heading
2026-05-08 02:05 44.74413 -85.58535 627 ft 0 kts 91°
2026-05-08 02:16 44.74416 -85.58584 632 ft 6 kts 133°
2026-05-08 02:16 44.74430 -85.58598 627 ft 3 kts 186°
2026-05-08 02:16 44.74381 -85.58602 629 ft 10 kts 185°
2026-05-08 02:16 44.74343 -85.58603 630 ft 0 kts 174°
2026-05-08 02:17 44.74334 -85.58599 631 ft 3 kts 162°
2026-05-08 02:17 44.74308 -85.58568 630 ft 7 kts 140°
2026-05-08 02:17 44.74260 -85.58507 635 ft 12 kts 134°
2026-05-08 02:18 44.74210 -85.58395 636 ft 15 kts 105°
2026-05-08 02:18 44.74204 -85.58224 627 ft 20 kts 93°
2026-05-08 02:18 44.74194 -85.58013 635 ft 23 kts 96°
2026-05-08 02:18 44.74183 -85.57766 635 ft 27 kts 93°
2026-05-08 02:19 44.74172 -85.57553 626 ft 19 kts 94°
2026-05-08 02:19 44.74163 -85.57350 625 ft 23 kts 94°
2026-05-08 02:19 44.74152 -85.57110 634 ft 26 kts 94°
2026-05-08 02:19 44.74140 -85.56837 629 ft 30 kts 94°
2026-05-08 02:20 44.74126 -85.56527 632 ft 33 kts 94°
2026-05-08 02:20 44.74074 -85.56396 629 ft 0 kts 191°
2026-05-08 02:20 44.74048 -85.56398 628 ft 7 kts 183°
2026-05-08 02:20 44.74001 -85.56454 623 ft 11 kts 257°
2026-05-08 02:21 44.74002 -85.56559 622 ft 0 kts 274°
2026-05-08 02:25 44.74006 -85.56627 630 ft 40 kts 274°
2026-05-08 02:25 44.74047 -85.57540 628 ft 141 kts 274°
2026-05-08 02:25 44.74104 -85.59145 1209 ft 168 kts 270°
2026-05-08 02:25 44.74147 -85.60797 2390 ft 173 kts 273°
2026-05-08 02:26 44.74212 -85.62560 3169 ft 188 kts 267°
2026-05-08 02:26 44.73983 -85.63739 3445 ft 192 kts 243°
2026-05-08 02:26 44.72642 -85.65224 3497 ft 195 kts 193°
2026-05-08 02:26 44.71173 -85.65282 3554 ft 228 kts 176°
2026-05-08 02:27 44.69570 -85.64961 4118 ft 236 kts 173°
2026-05-08 02:27 44.67946 -85.64620 5438 ft 234 kts 175°
2026-05-08 02:27 44.66316 -85.64355 6703 ft 239 kts 178°
2026-05-08 02:27 44.65208 -85.64218 7495 ft 242 kts 180°
2026-05-08 02:28 44.63517 -85.64052 8751 ft 245 kts 182°
2026-05-08 02:28 44.61802 -85.63910 9974 ft 249 kts 183°
2026-05-08 02:28 44.60059 -85.63775 11124 ft 251 kts 183°
2026-05-08 02:28 44.57732 -85.63595 12693 ft 255 kts 184°
2026-05-08 02:29 44.55931 -85.63458 13684 ft 267 kts 184°
2026-05-08 02:29 44.53990 -85.63319 14255 ft 291 kts 183°
2026-05-08 02:29 44.52618 -85.63218 14567 ft 307 kts 183°
2026-05-08 02:29 44.50386 -85.63049 14923 ft 336 kts 182°
2026-05-08 02:30 44.47941 -85.62859 15043 ft 368 kts 182°
2026-05-08 02:30 44.45294 -85.62646 15294 ft 393 kts 182°
2026-05-08 02:30 44.42489 -85.62414 15546 ft 414 kts 181°
2026-05-08 02:30 44.38579 -85.62092 16079 ft 432 kts 181°
2026-05-08 02:31 44.35566 -85.61844 16889 ft 435 kts 182°
2026-05-08 02:31 44.33515 -85.61675 17364 ft 439 kts 182°
2026-05-08 02:31 44.30486 -85.61430 18057 ft 444 kts 182°
2026-05-08 02:31 44.27391 -85.61183 18694 ft 448 kts 182°
2026-05-08 02:32 44.24254 -85.60934 19256 ft 454 kts 182°
2026-05-08 02:32 44.21088 -85.60684 19827 ft 459 kts 182°
2026-05-08 02:32 44.17876 -85.60431 20382 ft 464 kts 182°
2026-05-08 02:32 44.13574 -85.60092 21053 ft 472 kts 183°
2026-05-08 02:33 44.10271 -85.59834 21438 ft 480 kts 183°
2026-05-08 02:33 44.08009 -85.59657 21823 ft 483 kts 183°
2026-05-08 02:33 44.04640 -85.59392 22334 ft 487 kts 183°
2026-05-08 02:33 44.01279 -85.59129 22826 ft 492 kts 183°
2026-05-08 02:34 43.97844 -85.58860 23310 ft 497 kts 183°
2026-05-08 02:34 43.94376 -85.58588 23698 ft 501 kts 183°
2026-05-08 02:34 43.90885 -85.58315 23998 ft 504 kts 183°
2026-05-08 02:34 43.87373 -85.58040 24339 ft 506 kts 184°
2026-05-08 02:35 43.83858 -85.57765 24611 ft 508 kts 184°
2026-05-08 02:35 43.80325 -85.57490 24905 ft 508 kts 184°
2026-05-08 02:35 43.76796 -85.57214 25240 ft 507 kts 184°
2026-05-08 02:35 43.73275 -85.56940 25522 ft 508 kts 184°
2026-05-08 02:36 43.69791 -85.56671 25801 ft 508 kts 184°
2026-05-08 02:36 43.66267 -85.56399 26147 ft 507 kts 184°
2026-05-08 02:36 43.62744 -85.56126 26506 ft 506 kts 184°
2026-05-08 02:36 43.59230 -85.55854 26862 ft 505 kts 184°
2026-05-08 02:37 43.55721 -85.55583 27227 ft 504 kts 184°
2026-05-08 02:37 43.52223 -85.55312 27553 ft 503 kts 184°
2026-05-08 02:37 43.48728 -85.55043 27910 ft 503 kts 184°
2026-05-08 02:37 43.45240 -85.54774 28258 ft 502 kts 184°
2026-05-08 02:38 43.41803 -85.54510 28602 ft 501 kts 184°
2026-05-08 02:38 43.38328 -85.54243 28952 ft 500 kts 184°
2026-05-08 02:38 43.34854 -85.53975 29297 ft 499 kts 184°
2026-05-08 02:38 43.31387 -85.53709 29572 ft 499 kts 185°
2026-05-08 02:39 43.27926 -85.53444 29928 ft 499 kts 185°
2026-05-08 02:39 43.24462 -85.53179 30242 ft 498 kts 185°
2026-05-08 02:39 43.20998 -85.52914 30547 ft 498 kts 185°
2026-05-08 02:39 43.17538 -85.52651 30843 ft 499 kts 185°
2026-05-08 02:40 43.14072 -85.52386 31122 ft 499 kts 185°
2026-05-08 02:40 43.10601 -85.52120 31412 ft 500 kts 186°
2026-05-08 02:40 43.07175 -85.51859 31731 ft 500 kts 186°
2026-05-08 02:40 43.03696 -85.51594 32059 ft 500 kts 186°
2026-05-08 02:41 43.00226 -85.51331 32367 ft 500 kts 186°
2026-05-08 02:41 42.96746 -85.51067 32687 ft 500 kts 186°
2026-05-08 02:41 42.93269 -85.50803 32990 ft 501 kts 186°
2026-05-08 02:41 42.89791 -85.50538 33266 ft 501 kts 186°
2026-05-08 02:42 42.86305 -85.50274 33583 ft 501 kts 186°
2026-05-08 02:42 42.82825 -85.50011 33896 ft 501 kts 186°
2026-05-08 02:42 42.79351 -85.49746 34162 ft 502 kts 186°
2026-05-08 02:42 42.75894 -85.49233 34429 ft 506 kts 182°
2026-05-08 02:43 42.72400 -85.48614 34704 ft 506 kts 181°
2026-05-08 02:43 42.68912 -85.47995 34957 ft 506 kts 181°
2026-05-08 02:43 42.65420 -85.47377 35208 ft 505 kts 181°
2026-05-08 02:43 42.61936 -85.46765 35473 ft 505 kts 181°
2026-05-08 02:44 42.58457 -85.46156 35727 ft 504 kts 181°
2026-05-08 02:44 42.54983 -85.45550 35983 ft 504 kts 181°
2026-05-08 02:44 42.51496 -85.44943 36187 ft 503 kts 181°
2026-05-08 02:44 42.48077 -85.44345 36486 ft 502 kts 182°
2026-05-08 02:45 42.44619 -85.43744 36735 ft 501 kts 181°
2026-05-08 02:45 42.41162 -85.43144 36977 ft 501 kts 181°
2026-05-08 02:45 42.34261 -85.41953 37041 ft 499 kts 181°
2026-05-08 02:46 42.27380 -85.40759 37040 ft 498 kts 182°
2026-05-08 02:46 42.20506 -85.39571 37042 ft 498 kts 182°
2026-05-08 02:47 42.13681 -85.38395 37043 ft 498 kts 182°
2026-05-08 02:47 42.06820 -85.37214 37043 ft 498 kts 182°
2026-05-08 02:48 41.99946 -85.36035 37042 ft 498 kts 182°
2026-05-08 02:48 41.93078 -85.34859 37050 ft 498 kts 182°
2026-05-08 02:49 41.86258 -85.33692 37047 ft 497 kts 182°
2026-05-08 02:49 41.79390 -85.32519 37051 ft 497 kts 182°
2026-05-08 02:50 41.72526 -85.31351 37052 ft 497 kts 183°